Location: Newark
(39.5667°N, 8.9833°E)
Time: 16:39:45
(UTC+00:00)

Transit 2A - Pass Details

Date: 01 November 2019
Orbit: 601 x 957 km, 66.7° (Epoch: 21 November)

Event Time Altitude Azimuth Distance (km) Brightness Sun altitude
Rises 02:17:23 0° 309° (NW) 2,854 - -41.5°
Reaches altitude 10° 02:20:41 10° 282° (WNW) 1,952 - -40.9°
Maximum altitude 02:22:44 13° 254° (WSW) 1,759 - -40.5°
Drops below altitude 10° 02:24:49 10° 225° (SW) 1,979 - -40.1°
Sets 02:28:14 0° 198° (SSW) 2,928 - -39.5°
